Location: Prairie View Elementary School
(39.8322°N, 99.5698°W)
Time: 16:37:20
(UTC+00:00)

Cosmos 1703 Rocket - Pass Details

Date: 08 December 2019
Orbit: 604 x 635 km, 82.5° (Epoch: 22 January)

Event Time Altitude Azimuth Distance (km) Brightness Sun altitude
Exits shadow 11:51:07 10° 359° (N) 2,011 6.0 -21.5°
Maximum altitude 11:55:32 64° 81° (E) 696 4.0 -20.7°
Drops below altitude 10° 11:59:54 10° 163° (SSE) 1,980 6.5 -19.9°
Sets 12:02:07 0° 166° (SSE) 2,876 7.4 -19.5°
